Location: Boursonne
(49.2024°N, 3.0468°E)
Time: 17:02:43
(UTC+00:00)

Cosmos 2360 Rocket - Pass Details

Date: 03 March 2021
Orbit: 833 x 846 km, 71.0° (Epoch: 20 April)

Event Time Altitude Azimuth Distance (km) Brightness Sun altitude
Rises 18:37:14 0° 188° (S) 3,375 5.4 -11.1°
Reaches altitude 10° 18:39:44 10° 182° (S) 2,447 4.6 -11.5°
Maximum altitude 18:45:05 48° 110° (ESE) 1,089 2.4 -12.3°
Drops below altitude 10° 18:50:31 10° 37° (NE) 2,472 4.3 -13.2°
Sets 18:53:02 0° 33° (NNE) 3,413 5.1 -13.6°
